Home   Weather   India   Farrukhnagar   Past weeks
Flag for India

Past Weather in Farrukhnagar, Haryana, India — Yesterday and Last 2 Weeks

Currently: 79 °F. Thunderstorms. Cloudy. (Weather station: New Delhi Palam Airport, India). See more current weather

Past Weather in Farrukhnagar — Graph

°F

Farrukhnagar Temperature Yesterday

Maximum temperature yesterday: 90 °F (at 2:00 pm)
Minimum temperature yesterday: 79 °F (at 12:00 am)
Average temperature yesterday: 83 °F

High & Low Weather Summary for the Past Weeks

 TemperatureHumidityPressure
High99 °F (Jul 16, 2:00 pm)100% (Jul 18, 6:00 pm)29.74 "Hg (Jul 18, 6:00 pm)
Low77 °F (Jul 19, 4:30 pm)44% (Jul 17, 4:30 pm)29.39 "Hg (Jul 22, 3:30 pm)
Average86 °F86%29.51 "Hg
* Reported Jul 15 1:30 pm — Jul 30 2:00 pm, Farrukhnagar. Weather by CustomWeather, © 2021

Note: Actual official high and low records may vary slightly from our data, if they occured in-between our weather recording intervals... More about our weather records

Farrukhnagar Weather History for the Previous 24 Hours

Scroll right to see more
 ConditionsComfort  
Time TempWeatherWind HumidityBarometerVisibility
2:00 pm
Fri, Jul 30
88 °FFog.3 mph84%29.50 "Hg1 mi
1:30 pm86 °FFog.3 mph89%29.50 "Hg1 mi
1:00 pm86 °FFog.3 mph89%29.50 "Hg1 mi
12:30 pm84 °FFog.3 mph94%29.53 "Hg1 mi
12:00 pm84 °FFog.3 mph94%29.53 "Hg1 mi
11:30 am82 °FFog.5 mph94%29.53 "Hg1 mi
11:00 am81 °FFog.6 mph100%29.56 "Hg1 mi
10:30 am82 °FFog.7 mph94%29.56 "Hg1 mi
10:00 am82 °FFog.No wind94%29.56 "Hg1 mi
9:30 am82 °FFog.No wind94%29.56 "Hg1 mi
9:00 am82 °FFog.No wind94%29.56 "Hg1 mi
8:30 am81 °FFog.No wind100%29.53 "Hg1 mi
8:00 am81 °FFog.No wind94%29.53 "Hg1 mi
7:30 am81 °FFog.No wind100%29.53 "Hg1 mi
7:00 am81 °FFog.No wind100%29.50 "Hg1 mi
6:30 am81 °FFog.No wind100%29.50 "Hg1 mi
6:00 am81 °FFog.3 mph100%29.50 "Hg1 mi
5:30 am81 °FFog.3 mph100%29.50 "Hg1 mi
5:00 am81 °FFog.No wind100%29.50 "Hg1 mi
4:30 am81 °FFog.No wind100%29.50 "Hg1 mi
4:00 am81 °FFog.No wind100%29.50 "Hg1 mi
3:30 am81 °FFog.No wind100%29.50 "Hg1 mi
3:00 am81 °FFog.3 mph100%29.50 "Hg1 mi
2:30 am81 °FFog.No wind100%29.50 "Hg1 mi
2:00 am82 °FFog.5 mph100%29.50 "Hg1 mi
1:30 am82 °FFog.3 mph100%29.50 "Hg1 mi
1:00 am82 °FFog.5 mph100%29.50 "Hg1 mi
12:30 am82 °FFog.5 mph100%29.50 "Hg2 mi
12:00 am82 °FFog.8 mph100%29.50 "Hg2 mi
11:30 pm
Thu, Jul 29
82 °FFog.7 mph100%29.53 "Hg2 mi
11:00 pm82 °FFog.6 mph100%29.53 "Hg2 mi
10:30 pm82 °FFog.5 mph100%29.53 "Hg2 mi
10:00 pm82 °FFog.3 mph100%29.50 "Hg2 mi
9:30 pm84 °FPartly cloudy.5 mph100%29.50 "Hg2 mi
9:00 pm84 °FPartly cloudy.5 mph100%29.50 "Hg2 mi
8:30 pm84 °FFog.5 mph100%29.50 "Hg2 mi
8:00 pm84 °FFog.3 mph100%29.47 "Hg2 mi
7:30 pm84 °FFog.3 mph94%29.47 "Hg2 mi
7:00 pm84 °FFog.3 mph94%29.47 "Hg2 mi
6:30 pm84 °FFog.5 mph94%29.45 "Hg2 mi
6:00 pm84 °FFog.6 mph94%29.45 "Hg2 mi
5:30 pm84 °FFog.7 mph94%29.45 "Hg2 mi
5:00 pm86 °FFog.8 mph84%29.45 "Hg2 mi
Weather by CustomWeather, © 2021

See weather overview